STARLINK-32156, 60278

Orbit data source: Space-Track

STARLINK-32156, 60278 is a payload satellite owned by SpaceX/Seattle (US) in LEO that was launched on Sun, 28 Jul 2024 UTC via an FALCON 9 launch vehicle from the Air Force Eastern Test Range (AFETR). Payload-class satellites include a variety of spacecraft equipped with specific instruments for various scientific and technological missions. These include communications satellites like Starlink; space stations such as the ISS; scientific satellites like the Hubble; Earth observation satellites from companies like Planet Labs, Umbra, and HawkEye 360; GPS; miniature CubeSats for education and research; and military/defense satellites.

Loading next visibility...
Identifier
60278, 2024-132A
Orbit
LEO
Country
Flag of USUS
Related business
Manufacturer
SpaceX/Seattle
Mission
Operational Commercial Communications
Bus & Motor
STARLINK V2M, Unknown motor
Mass
730 kg wet, ~700 kg dry
Launch date (UTC)
2024-07-28 (2 years ago)
Launch vehicle
FALCON 9
Launch site
Air Force Eastern Test Range (AFETR)
Object type
Payload
Rocket body
Debris
Shape & HBR
Box + 2 Pan, 17.7 m
Radar Cross Section
33.884 m², Large (>1 m²)

Expand to show TLE details & history
Last TLE update: 1 day ago

TLE from 1 day ago
0 STARLINK-32156
1 60278U 24132A   26071.31539884  .00000921  00000-0  43235-4 0  9995
2 60278  53.1620  40.1451 0001476  94.0913 266.0256 15.30183398 93180
Epoch: 2026-03-12T07:34Z
TLE epoch observation values (Epoch: 2026-03-12T07:34:10.459Z)
Latitude
-0.00008°
Longitude
116.63442°
Altitude
476.235 km
Speed
7.629 km/s
True Right ascension
02h 40m 34s
True Declination
0° 00' 00"
Sunlit
Object was in daylight at epoch
Visualization orbit readout
Latitude
Unknown
Longitude
Unknown
Altitude
Unknown
Speed
Unknown
Apparent Right ascension
Unknown
Apparent Declination
Unknown
Sunlit
N/A
Visualization observer readout
Local Sidereal Time
11:36:28
Azimuth
Unknown
Elevation
Unknown
Doppler factor
Unknown
Orbital elements
Apogee altitude
476.532 km
Perigee altitude
474.509 km
Semi-major axis
6,853.658 km
Eccentricity
0.00015
Inclination
53.162°
RAAN
40.1451°
Arg. of periapsis
94.0913°
True anomaly
266.00873°
Mean anomaly
266.0256°
Eccentric anomaly
266.01716°
Mean motion
3.82525 °/min
Orbital period
94.11 mins
BSTAR
0.000043235
Loading maneuver chart data...
Computing Atmospheric mass density...
Loading historical data...
Loading historical data...
Loading historical data...
Loading historical data...
Loading historical data...
Loading historical data...
Loading historical data...

Documentation

Showing up to 5 results
|